Leonardtown, MD

8:21 PM EDT on July 27, 2017 (GMT -0400)
Leonardtown

Weather History for K2W6 - February, 2013

Change the Weather History Date:

Sunday, February 3, 2013

  Actual Average (KNHK) Record (KNHK)
Temperature  
Mean Temperature 28 °F -  
Max Temperature 33 °F 44 °F 61 °F (2016)
Min Temperature 24 °F 28 °F 21 °F (2015)
Degree Days  
Heating Degree Days 36    
Moisture  
Dew Point 27 °F    
Average Humidity 87    
Maximum Humidity 93    
Minimum Humidity 69    
Precipitation  
Precipitation 0.00 in - - ()
Sea Level Pressure  
Sea Level Pressure 29.92 in    
Wind  
Wind Speed 1 mph (WSW)    
Max Wind Speed 9 mph    
Max Gust Speed 20 mph    
Visibility 9 miles    
Events      
Averages and records for this station are not official NWS values.
T = Trace of Precipitation, MM = Missing Value Source: NWS Daily Summary

Daily Weather History Graph

Daily Weather History Graph

Search for Another Location

Airport or City:

Trip Planner

Search our weather history database for the weather conditions in past years. The results will help you decide how hot, cold, wet, or windy it might be!

Date:

Astronomy

Feb. 03, 2013 Rise Set
Actual Time 7:09 AM EST 5:31 PM EST
Civil Twilight 6:41 AM EST 5:59 PM EST
Nautical Twilight 6:10 AM EST 6:30 PM EST
Astronomical Twilight 5:39 AM EST 7:01 PM EST
Moon 12:34 AM EST (2/3) 11:07 AM EST (2/3)
Length of Visible Light 11h 17m
Length of Day
10h 22m
Waning Gibbous, 49% of the Moon is Illuminated
Feb 3
Waning Gibbous
Feb 10
New
Feb 17
First Quarter
Feb 25
Full
Mar 4
Last Quarter

Hourly Weather History & Observations

Time (EST) Temp. Windchill Dew Point Humidity Pressure Visibility Wind Dir Wind Speed Gust Speed Precip Events Conditions
12:13 AM 30.2 °F - 26.6 °F 86% 30.01 in 10.0 mi Calm Calm - N/A   Mostly Cloudy
12:34 AM 30.2 °F - 26.6 °F 86% 30.01 in 10.0 mi Calm Calm - N/A   Overcast
12:55 AM 30.2 °F - 26.6 °F 86% 30.00 in 10.0 mi Calm Calm - N/A   Overcast
1:17 AM 30.2 °F - 26.6 °F 86% 30.00 in 10.0 mi Calm Calm - N/A   Overcast
1:38 AM 30.2 °F - 26.6 °F 86% 29.99 in 10.0 mi Calm Calm - N/A   Overcast
1:59 AM 28.4 °F - 26.6 °F 93% 29.98 in 10.0 mi Calm Calm - N/A   Scattered Clouds
2:21 AM 28.4 °F - 26.6 °F 93% 29.97 in 10.0 mi Calm Calm - N/A   Clear
2:42 AM 28.4 °F - 26.6 °F 93% 29.97 in 10.0 mi Calm Calm - N/A   Scattered Clouds
3:03 AM 28.4 °F - 26.6 °F 93% 29.96 in 10.0 mi Calm Calm - N/A   Scattered Clouds
3:25 AM 28.4 °F - 26.6 °F 93% 29.96 in 10.0 mi Calm Calm - N/A   Clear
3:46 AM 28.4 °F - 26.6 °F 93% 29.95 in 10.0 mi Calm Calm - N/A   Clear
4:07 AM 26.6 °F - 24.8 °F 93% 29.94 in 10.0 mi Calm Calm - N/A   Scattered Clouds
4:29 AM 26.6 °F - 24.8 °F 93% 29.94 in 4.0 mi Calm Calm - N/A   Scattered Clouds
4:50 AM 26.6 °F - 24.8 °F 93% 29.94 in 4.0 mi Calm Calm - N/A   Scattered Clouds
5:11 AM 26.6 °F - 24.8 °F 93% 29.94 in 5.0 mi Calm Calm - N/A   Clear
5:33 AM 26.6 °F - 24.8 °F 93% 29.94 in 10.0 mi Calm Calm - N/A   Clear
5:54 AM 26.6 °F - 24.8 °F 93% 29.93 in 10.0 mi Calm Calm - N/A   Scattered Clouds
6:15 AM 26.6 °F - 23.0 °F 86% 29.93 in 10.0 mi Calm Calm - N/A   Clear
6:37 AM 26.6 °F - 24.8 °F 93% 29.94 in 10.0 mi Calm Calm - N/A   Scattered Clouds
6:58 AM 24.8 °F - 23.0 °F 93% 29.94 in 10.0 mi Calm Calm - N/A   Scattered Clouds
7:19 AM 24.8 °F - 23.0 °F 93% 29.95 in 10.0 mi Calm Calm - N/A   Mostly Cloudy
7:41 AM 24.8 °F - 23.0 °F 93% 29.96 in 10.0 mi Calm Calm - N/A   Scattered Clouds
8:02 AM 26.6 °F - 23.0 °F 86% 29.96 in 10.0 mi Calm Calm - N/A   Scattered Clouds
8:23 AM 28.4 °F - 26.6 °F 93% 29.96 in 10.0 mi Calm Calm - N/A   Mostly Cloudy
9:06 AM 30.2 °F - 28.4 °F 93% 29.95 in 10.0 mi Calm Calm - N/A   Mostly Cloudy
9:27 AM 30.2 °F - 28.4 °F 93% 29.95 in 10.0 mi Calm Calm - N/A   Overcast
9:48 AM 32.0 °F 27.5 °F 28.4 °F 87% 29.94 in 10.0 mi ENE 4.6 mph - N/A   Overcast
10:10 AM 32.0 °F 27.5 °F 26.6 °F 80% 29.94 in 10.0 mi East 4.6 mph - N/A   Overcast
10:31 AM 32.0 °F 28.7 °F 26.6 °F 80% 29.94 in 10.0 mi East 3.5 mph - N/A   Overcast
10:52 AM 32.0 °F - 24.8 °F 75% 29.94 in 10.0 mi Calm Calm - N/A   Overcast
11:13 AM 32.0 °F - 26.6 °F 80% 29.93 in 10.0 mi Calm Calm - N/A   Overcast
11:35 AM 32.0 °F - 26.6 °F 80% 29.93 in 7.0 mi Calm Calm - N/A   Overcast
11:56 AM 32.0 °F - 26.6 °F 80% 29.92 in 10.0 mi Calm Calm - N/A   Overcast
12:17 PM 32.0 °F - 26.6 °F 80% 29.91 in 10.0 mi Calm Calm - N/A   Overcast
12:38 PM 33.8 °F 30.8 °F 26.6 °F 75% 29.89 in 10.0 mi SW 3.5 mph - N/A   Overcast
1:00 PM 32.0 °F 28.7 °F 24.8 °F 75% 29.88 in 10.0 mi North 3.5 mph - N/A   Overcast
1:21 PM 33.8 °F 29.6 °F 26.6 °F 75% 29.88 in 10.0 mi WSW 4.6 mph - N/A   Overcast
1:42 PM 32.0 °F 26.4 °F 28.4 °F 87% 29.88 in 1.2 mi WSW 5.8 mph - N/A   Overcast
2:04 PM 32.0 °F 28.7 °F 30.2 °F 93% 29.86 in 1.5 mi SW 3.5 mph - N/A   Overcast
2:25 PM 32.0 °F 28.7 °F 30.2 °F 93% 29.86 in 5.0 mi WSW 3.5 mph - N/A   Overcast
2:46 PM 32.0 °F - 30.2 °F 93% 29.86 in 10.0 mi Calm Calm - N/A   Overcast
3:07 PM 32.0 °F 26.4 °F 28.4 °F 87% 29.86 in 10.0 mi West 5.8 mph - N/A   Overcast
3:29 PM 33.8 °F 29.6 °F 28.4 °F 81% 29.86 in 10.0 mi WNW 4.6 mph - N/A   Overcast
3:50 PM 33.8 °F 30.8 °F 28.4 °F 81% 29.87 in 10.0 mi West 3.5 mph - N/A   Overcast
4:11 PM 33.8 °F 29.6 °F 28.4 °F 81% 29.87 in 10.0 mi WSW 4.6 mph - N/A   Overcast
4:32 PM 33.8 °F 30.8 °F 28.4 °F 81% 29.87 in 10.0 mi WSW 3.5 mph - N/A   Overcast
4:33 PM 33.8 °F 30.8 °F 28.4 °F 81% 29.87 in 10.0 mi WSW 3.5 mph - N/A   Overcast
4:54 PM 33.8 °F 30.8 °F 28.4 °F 81% 29.86 in 10.0 mi SW 3.5 mph - N/A   Overcast
5:15 PM 33.8 °F 30.8 °F 28.4 °F 81% 29.86 in 10.0 mi West 3.5 mph - N/A   Scattered Clouds
5:36 PM 32.0 °F - 28.4 °F 87% 29.86 in 10.0 mi Calm Calm - N/A   Clear
5:58 PM 32.0 °F - 28.4 °F 87% 29.86 in 10.0 mi Calm Calm - N/A   Scattered Clouds
6:19 PM 32.0 °F - 28.4 °F 87% 29.87 in 10.0 mi Calm Calm - N/A   Mostly Cloudy
6:40 PM 30.2 °F - 28.4 °F 93% 29.87 in 10.0 mi Calm Calm - N/A   Overcast
7:01 PM 32.0 °F - 28.4 °F 87% 29.88 in 10.0 mi Calm Calm - N/A   Overcast
7:23 PM 32.0 °F - 28.4 °F 87% 29.88 in 10.0 mi Calm Calm - N/A   Overcast
7:44 PM 30.2 °F - 28.4 °F 93% 29.88 in 10.0 mi Calm Calm - N/A   Overcast
8:05 PM 32.0 °F - 28.4 °F 87% 29.89 in 10.0 mi Calm Calm - N/A   Overcast
8:27 PM 32.0 °F - 28.4 °F 87% 29.89 in 10.0 mi Calm Calm - N/A   Overcast
8:48 PM 32.0 °F - 28.4 °F 87% 29.90 in 10.0 mi Calm Calm - N/A   Overcast
9:09 PM 32.0 °F - 28.4 °F 87% 29.91 in 10.0 mi Calm Calm - N/A   Overcast
9:30 PM 32.0 °F - 28.4 °F 87% 29.91 in 10.0 mi Calm Calm - N/A   Overcast
9:52 PM 32.0 °F 28.7 °F 28.4 °F 87% 29.92 in 10.0 mi SW 3.5 mph - N/A   Overcast
10:13 PM 32.0 °F - 28.4 °F 87% 29.92 in 10.0 mi Calm Calm - N/A   Overcast
10:34 PM 32.0 °F 28.7 °F 28.4 °F 87% 29.92 in 10.0 mi WSW 3.5 mph - N/A   Overcast
10:56 PM 32.0 °F 27.5 °F 28.4 °F 87% 29.93 in 10.0 mi WNW 4.6 mph - N/A   Overcast
11:17 PM 32.0 °F 24.2 °F 26.6 °F 80% 29.94 in 10.0 mi West 9.2 mph - N/A   Overcast
11:38 PM 32.0 °F 24.2 °F 23.0 °F 69% 29.95 in 10.0 mi WNW 9.2 mph 19.6 mph N/A   Mostly Cloudy